Вернуться в каталог

SL-8 R/B

АктивенPO
NORAD 13758·ROCKET BODY·🇷🇺 Russia

Запущен Jan 12, 1983 с Plesetsk Cosmodrome

Loading…

Ближайшие Пролёты (ближайшие 24 часа)

TLE

СвежийSource: Space-Track

Эпоха: Sep 14, 2026, 12:53 UTC

1 13758U 83001B   26257.53728232  .00000010  00000-0 -50907-5 0  9998
2 13758  82.9095 299.3815 0026381 225.2054 134.6960 13.79193066196703

Отслеживайте SL-8 R/B в реальном времени с AllMySat

Download on the App Store